Anita, PA

9:55 PM EDT on August 27, 2016 (GMT -0400)
Du Bois-Jefferson County

Weather History for KDUJ - August, 2013

Change the Weather History Date:

Saturday, August 17, 2013

  Actual Average Record
Temperature  
Mean Temperature 64 °F 67 °F  
Max Temperature 76 °F 78 °F 95 °F (1988)
Min Temperature 52 °F 57 °F 45 °F (1981)
Degree Days  
Heating Degree Days 1 1  
Month to date heating degree days 25 17  
Since 1 June heating degree days 76 126  
Since 1 July heating degree days 38 41  
Cooling Degree Days 0 4  
Month to date cooling degree days 35 68  
Year to date cooling degree days 402 293  
Since 1 June cooling degree days 343 270  
Growing Degree Days 14 (Base 50)    
Moisture  
Dew Point 52 °F    
Average Humidity 66    
Maximum Humidity 89    
Minimum Humidity 43    
Precipitation  
Precipitation 0.00 in 0.13 in 0.76 in (1977)
Month to date precipitation 2.00 2.15  
Sea Level Pressure  
Sea Level Pressure 30.26 in    
Wind  
Wind Speed 5 mph (ESE)    
Max Wind Speed 10 mph    
Max Gust Speed 15 mph    
Visibility 9 miles    
Events      
T = Trace of Precipitation, MM = Missing Value Source: NWS Daily Summary

Daily Weather History Graph

Daily Weather History Graph

Search for Another Location

Airport or City:

Trip Planner

Search our weather history database for the weather conditions in past years. The results will help you decide how hot, cold, wet, or windy it might be!

Date:

Astronomy

Aug. 17, 2013 Rise Set
Actual Time 6:27 AM EDT 8:11 PM EDT
Civil Twilight 5:57 AM EDT 8:40 PM EDT
Nautical Twilight 5:22 AM EDT 9:16 PM EDT
Astronomical Twilight 4:43 AM EDT 9:54 PM EDT
Moon 5:25 PM EDT (8/17) 2:27 AM EDT (8/17)
Length of Visible Light 14h 42m
Length of Day
13h 43m
Waxing Gibbous, 84% of the Moon is Illuminated
Aug 17
Waxing Gibbous
Aug 20
Full
Aug 28
Last Quarter
Sep 5
New
Sep 12
First Quarter

Hourly Weather History & Observations

Time (EDT) Temp. Dew Point Humidity Pressure Visibility Wind Dir Wind Speed Gust Speed Precip Events Conditions
12:56 AM 57.0 °F 51.1 °F 81% 30.22 in 10.0 mi East 4.6 mph - N/A   Clear
1:56 AM 55.9 °F 51.1 °F 84% 30.23 in 9.0 mi East 4.6 mph - N/A   Mostly Cloudy
2:56 AM 55.9 °F 51.1 °F 84% 30.23 in 9.0 mi East 8.1 mph - N/A   Clear
3:56 AM 54.0 °F 48.9 °F 83% 30.23 in 10.0 mi East 5.8 mph - N/A   Clear
4:56 AM 54.0 °F 48.9 °F 83% 30.25 in 10.0 mi ESE 3.5 mph - N/A   Clear
5:56 AM 52.0 °F 48.9 °F 89% 30.26 in 5.0 mi East 6.9 mph - N/A   Clear
6:56 AM 53.1 °F 48.9 °F 86% 30.28 in 5.0 mi East 4.6 mph - N/A   Clear
7:56 AM 57.0 °F 51.1 °F 81% 30.28 in 7.0 mi East 5.8 mph - N/A   Clear
8:56 AM 61.0 °F 52.0 °F 72% 30.29 in 10.0 mi East 3.5 mph - N/A   Clear
9:56 AM 66.0 °F 55.0 °F 68% 30.30 in 10.0 mi East 3.5 mph - N/A   Clear
10:56 AM 70.0 °F 54.0 °F 57% 30.29 in 10.0 mi ESE 4.6 mph - N/A   Clear
11:56 AM 72.0 °F 53.1 °F 51% 30.29 in 10.0 mi East 6.9 mph - N/A   Clear
12:56 PM 73.0 °F 55.0 °F 53% 30.27 in 10.0 mi Variable 4.6 mph - N/A   Mostly Cloudy
1:56 PM 73.9 °F 51.1 °F 45% 30.27 in 10.0 mi East 5.8 mph - N/A   Scattered Clouds
2:56 PM 73.0 °F 53.1 °F 49% 30.26 in 10.0 mi East 5.8 mph - N/A   Overcast
3:56 PM 75.0 °F 52.0 °F 44% 30.25 in 10.0 mi ESE 8.1 mph - N/A   Partly Cloudy
4:56 PM 73.9 °F 52.0 °F 46% 30.25 in 10.0 mi ESE 6.9 mph - N/A   Mostly Cloudy
5:56 PM 73.0 °F 53.1 °F 49% 30.25 in 10.0 mi ESE 3.5 mph - N/A   Scattered Clouds
6:56 PM 72.0 °F 53.1 °F 51% 30.25 in 10.0 mi SSE 4.6 mph - N/A   Partly Cloudy
7:56 PM 69.1 °F 52.0 °F 54% 30.26 in 10.0 mi SSE 3.5 mph - N/A   Partly Cloudy
8:56 PM 66.9 °F 52.0 °F 59% 30.25 in 10.0 mi SE 3.5 mph - N/A   Clear
9:56 PM 64.0 °F 53.1 °F 67% 30.26 in 10.0 mi Calm Calm - N/A   Clear
10:56 PM 63.0 °F 54.0 °F 72% 30.25 in 10.0 mi ESE 4.6 mph - N/A   Clear
11:56 PM 63.0 °F 53.1 °F 70% 30.25 in 10.0 mi ESE 5.8 mph - N/A   Clear